Wind_Speed
8 8 8 8 8 8 9 10 10 11 11 11 11 12 13 13 12 12 12 13 12 12 12 13 13 14 14 14 15 15 15 15 15 15 15 16 17 18 19 19 20 21 21
7 7 7 8 8 8 9 10 11 11 11 11 11 12 12 12 12 12 12 13 13 12 12 13 13 14 14 15 15 15 15 15 15 16 16 17 17 17 18 19 19 20 20
6 6 8 8 8 9 10 10 10 11 11 11 11 11 11 11 11 11 11 12 12 12 13 13 13 14 14 15 16 16 15 16 16 17 16 16 17 17 18 18 20 20 20
7 7 8 8 9 10 10 10 10 10 11 11 12 12 11 11 10 10 10 11 11 11 12 12 13 14 14 15 15 15 15 15 16 16 16 17 17 18 19 20 20 21 21
7 7 8 9 10 10 10 10 11 10 11 11 12 11 11 11 11 10 10 10 10 10 10 11 12 13 14 14 14 14 14 14 15 15 16 17 18 19 19 20 21 21 22
7 8 9 10 10 10 10 11 11 11 11 11 11 11 11 11 11 10 10 10 9 10 10 11 11 13 14 14 13 13 13 14 15 16 17 18 18 19 20 21 21 22 22
9 9 10 10 11 11 11 11 11 11 12 11 11 11 12 12 11 11 11 10 10 10 11 11 12 13 12 12 12 12 13 14 15 16 17 18 19 19 19 20 21 21 21
10 11 11 11 11 11 11 11 11 12 12 11 11 11 11 11 11 11 11 11 10 10 11 11 11 11 11 11 11 12 13 14 15 16 17 17 18 19 19 20 20 20 20
11 12 12 12 12 12 12 12 12 12 11 11 11 11 11 11 11 11 11 11 11 12 12 11 11 10 11 11 11 13 14 14 15 16 16 17 17 18 18 19 19 20 20
11 12 12 12 12 12 12 11 11 11 11 11 11 11 11 11 11 11 12 11 12 12 12 12 11 11 11 11 12 13 14 15 16 17 17 17 17 17 18 19 19 20 20
12 12 11 11 11 11 11 11 11 11 11 10 10 11 11 11 11 11 12 12 13 13 12 12 11 11 11 12 12 13 13 14 15 16 17 17 17 18 18 19 20 20 20
13 13 12 12 12 11 11 11 11 11 10 10 10 11 10 11 11 11 11 12 12 12 12 11 11 11 11 11 12 12 13 14 15 15 16 16 17 18 19 19 20 21 21
14 13 12 12 12 11 11 11 11 10 10 9 10 10 10 10 11 10 10 11 11 11 11 10 10 11 11 12 12 13 13 14 14 15 15 16 17 18 18 19 20 21 21
14 13 13 13 13 12 11 11 10 10 9 9 10 10 10 11 11 11 11 11 10 10 11 11 11 11 12 12 13 13 14 14 15 15 15 16 17 18 18 20 20 20 20
14 14 13 13 13 12 11 10 10 10 9 10 10 11 11 12 11 11 11 11 11 11 11 11 11 11 12 13 13 13 14 14 15 16 16 17 17 18 19 20 20 19 19
14 14 13 12 13 12 11 10 10 10 10 10 11 11 12 12 12 11 11 11 11 11 11 12 12 12 13 13 14 14 15 15 16 16 17 18 18 18 19 19 19 19 19
15 14 13 12 12 12 12 11 11 11 11 11 11 11 12 12 12 11 11 11 12 12 12 12 13 13 13 14 15 16 17 17 17 18 18 18 19 19 20 19 19 19 19
15 15 15 14 13 13 13 12 12 11 11 11 11 11 11 11 12 12 12 12 12 12 12 13 13 13 14 15 16 16 17 17 18 18 18 19 20 20 20 19 19 19 19
17 16 15 15 14 14 14 13 12 12 12 12 12 12 12 12 12 12 13 13 12 13 13 13 13 14 14 15 15 16 16 17 17 18 18 19 20 20 20 19 19 19 19
17 17 16 15 16 15 15 15 14 14 14 14 13 13 13 13 13 13 13 13 13 14 14 14 15 15 15 15 16 16 16 17 17 18 19 19 20 20 19 19 19 19 19
19 18 17 17 17 17 16 16 16 16 16 15 15 14 14 14 14 14 14 14 14 14 14 15 15 16 16 15 15 15 16 17 18 19 19 20 20 20 19 19 19 19 19
20 20 19 19 18 18 17 17 17 16 16 17 16 15 15 15 15 15 15 15 14 14 15 15 15 16 16 16 16 17 17 18 19 20 20 20 20 19 19 19 19 19 19
20 20 19 19 18 18 18 17 17 16 16 16 16 16 16 16 16 16 16 15 15 15 16 16 16 16 16 16 17 17 18 19 20 20 20 20 20 20 20 20 20 20 19
21 20 20 19 19 18 18 18 18 17 17 17 17 17 17 16 16 16 15 15 15 16 16 16 17 17 18 18 17 18 19 20 21 21 20 20 21 21 20 20 20 20 19
22 21 20 20 19 19 19 19 19 19 18 18 17 17 17 17 16 16 16 16 17 17 18 18 18 19 19 19 19 19 20 21 22 21 21 21 20 21 20 20 20 20 20
23 22 21 21 21 21 20 20 20 20 20 19 19 18 17 17 17 17 18 18 18 19 19 19 19 20 20 19 20 21 21 22 21 21 21 20 20 21 20 20 20 20 20
Wind_Direction
292 286 289 288 283 289 295 298 303 302 300 299 297 297 297 297 292 285 278 276 275 273 272 273 273 274 277 278 277 274 270 268 270 273 276 278 277 276 276 278 277 277 279
302 300 296 301 294 297 298 300 302 302 301 300 300 301 301 299 296 289 283 277 274 272 273 274 275 277 278 279 278 277 272 270 270 272 275 278 278 278 278 279 280 281 283
306 305 306 306 298 298 299 301 302 303 301 299 300 302 302 298 295 292 290 282 276 273 273 273 276 279 281 281 280 277 272 271 272 273 275 278 279 280 280 282 282 284 285
304 304 307 309 305 302 300 301 301 302 302 299 299 301 302 301 298 294 290 288 283 279 275 276 278 279 282 285 283 280 275 273 274 274 278 280 281 281 282 283 283 286 287
303 302 304 309 311 307 304 301 300 300 304 301 299 300 299 297 296 295 292 291 287 283 283 283 282 281 284 286 285 281 276 276 277 277 280 282 281 282 284 285 286 287 288
299 296 301 310 311 307 303 301 301 303 303 303 300 298 297 299 298 295 293 291 287 286 287 288 288 288 288 288 288 285 280 281 281 281 281 283 284 287 288 290 288 288 290
294 296 302 307 305 305 305 305 303 304 304 303 301 298 296 296 295 293 293 293 290 290 291 291 290 293 292 289 287 287 287 287 287 287 286 285 285 288 290 292 292 291 292
294 295 299 302 303 305 306 306 303 303 303 300 297 298 297 295 292 293 294 292 290 294 294 294 296 296 293 290 286 288 293 294 293 290 291 292 291 292 293 292 295 296 295
297 295 296 297 301 303 302 303 304 302 300 299 296 294 294 295 293 293 294 291 294 297 297 296 298 296 294 291 290 290 292 294 297 296 295 294 294 298 299 297 298 298 297
300 298 295 296 300 302 302 302 304 303 300 298 296 294 292 293 293 293 295 292 295 297 295 292 292 293 293 292 292 292 295 298 299 298 297 298 299 299 300 301 301 301 298
300 301 300 296 297 300 301 301 301 301 299 298 298 297 294 293 293 295 297 294 293 295 293 289 287 289 292 294 294 294 297 300 303 301 298 298 300 300 301 301 302 302 301
296 297 298 296 296 297 298 300 299 298 295 296 297 299 299 297 295 297 299 297 293 296 294 290 287 289 292 294 297 298 299 302 305 305 300 300 301 302 302 302 302 302 303
293 291 293 294 297 297 297 299 299 298 293 292 293 296 299 302 302 301 298 301 298 298 297 294 289 290 293 295 296 298 301 305 308 308 307 305 305 303 302 303 304 306 307
296 292 292 293 295 296 295 297 298 299 297 295 292 294 298 300 301 298 297 300 301 299 296 295 294 294 296 298 299 302 303 304 307 311 312 310 309 309 308 307 308 310 309
294 295 294 294 294 296 293 294 295 296 297 296 294 294 299 302 299 298 302 299 298 297 295 293 293 293 295 299 302 303 304 306 309 309 311 313 312 311 312 312 311 311 310
288 291 291 290 291 293 290 289 289 292 294 292 295 296 295 298 299 299 301 300 299 299 299 297 291 292 294 297 300 302 305 307 309 312 312 314 315 315 313 315 314 312 313
281 284 284 285 287 289 288 284 283 285 289 291 295 298 297 297 300 301 302 302 304 305 303 301 297 294 295 298 301 303 305 308 309 310 313 315 316 316 315 313 314 312 313
275 277 278 281 283 283 282 279 279 280 285 290 293 297 299 299 302 305 306 306 308 308 308 305 302 300 299 300 302 304 305 307 309 309 310 313 315 316 316 314 313 312 312
272 273 276 278 278 278 278 278 276 276 280 286 289 292 296 298 301 305 307 305 305 309 311 309 307 307 304 301 301 303 306 307 308 309 311 312 313 315 317 316 313 312 314
269 270 272 274 275 275 275 278 276 273 275 281 284 286 289 292 295 299 301 303 302 305 308 308 306 305 306 303 303 304 306 307 308 310 311 311 311 313 315 315 314 312 314
267 266 269 271 272 272 272 275 277 273 272 275 279 281 284 288 291 293 296 299 301 303 305 306 305 305 305 305 308 307 307 308 310 312 311 310 310 311 312 312 311 309 309
268 267 269 271 270 270 269 271 274 275 274 272 275 279 282 285 289 291 293 298 300 301 304 306 305 305 306 307 311 312 311 310 310 311 311 311 312 312 311 311 311 309 308
268 268 268 268 268 267 265 266 270 272 274 274 275 278 281 284 285 287 289 292 297 300 302 303 304 304 305 306 308 310 312 313 315 315 313 313 312 312 313 313 313 313 311
266 267 266 266 267 267 264 263 266 269 273 276 276 276 279 282 284 286 288 291 293 297 301 302 301 301 301 303 306 309 312 314 316 317 317 316 315 314 315 314 314 315 313
263 264 263 262 264 265 264 263 266 269 271 273 276 278 278 279 281 283 286 290 292 294 297 298 300 301 301 302 305 307 310 313 315 316 316 315 315 316 316 315 316 317 317
260 261 261 261 264 264 263 263 266 268 268 270 273 276 279 280 280 282 283 287 291 294 296 298 300 301 302 303 306 306 308 311 312 314 314 314 313 314 315 316 316 317 318
Height
5802 5802 5801 5801 5800 5800 5799 5798 5796 5795 5794 5793 5791 5790 5788 5786 5785 5783 5782 5782 5781 5781 5780 5780 5780 5779 5779 5779 5778 5777 5777 5776 5776 5776 5775 5774 5773 5772 5771 5770 5769 5768 5767
5799 5799 5798 5797 5797 5796 5796 5794 5793 5792 5790 5789 5787 5786 5784 5782 5780 5779 5778 5777 5777 5776 5776 5776 5775 5775 5775 5774 5773 5772 5772 5771 5771 5770 5770 5769 5768 5766 5765 5764 5763 5762 5760
5797 5797 5797 5795 5795 5794 5792 5791 5790 5788 5787 5785 5784 5782 5781 5779 5777 5776 5774 5773 5772 5772 5771 5771 5771 5770 5770 5769 5768 5767 5766 5766 5766 5765 5764 5763 5762 5761 5759 5758 5757 5755 5754
5796 5795 5794 5793 5792 5791 5789 5788 5786 5785 5783 5782 5780 5779 5777 5775 5774 5772 5771 5769 5768 5767 5767 5767 5766 5766 5765 5764 5763 5762 5761 5761 5760 5760 5759 5758 5756 5755 5754 5752 5751 5749 5747
5793 5793 5792 5790 5789 5787 5786 5784 5783 5781 5780 5778 5777 5775 5774 5772 5770 5769 5767 5766 5765 5764 5763 5762 5762 5761 5760 5759 5758 5757 5757 5756 5755 5754 5753 5752 5751 5749 5748 5746 5745 5743 5741
5791 5790 5789 5787 5786 5784 5783 5781 5780 5778 5776 5775 5773 5772 5771 5769 5767 5766 5764 5763 5762 5761 5760 5759 5758 5757 5756 5755 5754 5753 5752 5752 5751 5749 5748 5747 5746 5744 5742 5740 5738 5737 5735
5788 5787 5786 5784 5783 5781 5779 5778 5776 5775 5773 5772 5770 5769 5767 5766 5764 5763 5761 5760 5759 5758 5757 5755 5754 5753 5752 5751 5750 5749 5748 5747 5746 5745 5743 5742 5740 5738 5737 5734 5732 5730 5728
5785 5784 5783 5781 5779 5778 5776 5774 5773 5771 5770 5768 5767 5765 5764 5762 5761 5760 5758 5757 5756 5754 5753 5752 5750 5749 5748 5747 5746 5745 5744 5742 5741 5740 5738 5736 5734 5732 5730 5728 5726 5724 5721
5782 5780 5779 5777 5776 5774 5773 5771 5769 5767 5766 5764 5763 5762 5761 5759 5757 5756 5755 5753 5752 5751 5750 5748 5747 5746 5745 5743 5742 5741 5740 5738 5736 5734 5732 5730 5729 5727 5725 5722 5720 5718 5715
5778 5777 5775 5773 5772 5770 5769 5767 5765 5763 5762 5761 5760 5759 5757 5756 5754 5752 5751 5749 5748 5748 5746 5745 5744 5743 5741 5740 5739 5737 5735 5733 5731 5729 5727 5725 5723 5721 5719 5717 5715 5712 5709
5775 5773 5771 5770 5768 5767 5765 5763 5762 5761 5759 5758 5756 5755 5754 5752 5750 5749 5747 5746 5745 5744 5742 5741 5740 5739 5738 5736 5735 5733 5731 5729 5727 5724 5723 5721 5719 5716 5714 5712 5709 5707 5704
5771 5770 5768 5766 5765 5763 5762 5760 5759 5757 5756 5755 5753 5752 5750 5748 5747 5745 5744 5742 5741 5739 5738 5737 5736 5735 5734 5732 5731 5729 5727 5725 5723 5720 5718 5716 5714 5712 5710 5707 5705 5702 5698
5767 5766 5764 5763 5762 5760 5759 5757 5756 5754 5753 5752 5751 5749 5748 5745 5743 5742 5740 5739 5737 5736 5735 5733 5732 5731 5730 5729 5727 5725 5723 5721 5719 5717 5714 5712 5710 5708 5705 5702 5699 5696 5693
5763 5761 5760 5759 5758 5757 5755 5754 5752 5751 5750 5749 5748 5746 5745 5743 5741 5739 5737 5736 5734 5732 5731 5730 5729 5727 5726 5725 5723 5721 5719 5717 5715 5713 5711 5708 5706 5703 5700 5697 5694 5691 5688
5759 5758 5757 5756 5754 5753 5752 5751 5750 5748 5747 5746 5745 5743 5742 5740 5738 5736 5734 5733 5731 5729 5728 5726 5725 5724 5723 5721 5719 5717 5715 5713 5711 5709 5707 5704 5702 5699 5696 5693 5689 5686 5683
5755 5754 5753 5752 5751 5750 5748 5748 5747 5746 5745 5743 5742 5740 5739 5737 5735 5733 5732 5730 5728 5726 5725 5723 5721 5720 5719 5717 5716 5714 5711 5709 5707 5705 5702 5700 5698 5695 5692 5688 5685 5682 5678
5751 5750 5749 5748 5747 5746 5745 5744 5743 5743 5742 5740 5739 5737 5736 5734 5732 5730 5728 5727 5725 5723 5721 5720 5718 5716 5715 5714 5712 5710 5708 5705 5703 5701 5698 5696 5693 5690 5687 5684 5680 5677 5674
5746 5745 5744 5743 5743 5742 5741 5740 5740 5739 5738 5737 5736 5734 5732 5731 5729 5727 5725 5724 5722 5720 5718 5716 5715 5713 5711 5710 5708 5706 5703 5701 5699 5696 5694 5692 5689 5686 5683 5679 5676 5673 5670
5741 5740 5739 5739 5738 5738 5737 5736 5736 5735 5734 5733 5732 5731 5729 5727 5726 5724 5722 5720 5719 5717 5715 5713 5711 5709 5707 5705 5703 5701 5699 5697 5694 5692 5689 5687 5684 5681 5678 5675 5671 5668 5665
5735 5735 5734 5734 5733 5733 5732 5732 5731 5731 5730 5729 5728 5727 5726 5724 5722 5721 5719 5717 5716 5714 5712 5710 5708 5706 5704 5702 5699 5697 5695 5692 5690 5687 5685 5682 5679 5676 5673 5670 5667 5664 5661
5729 5729 5728 5728 5728 5727 5727 5726 5726 5726 5725 5724 5724 5723 5722 5720 5718 5717 5715 5714 5712 5710 5708 5706 5704 5702 5700 5698 5695 5693 5691 5688 5685 5683 5680 5678 5675 5672 5669 5666 5663 5660 5656
5722 5722 5722 5722 5722 5721 5721 5721 5721 5720 5720 5719 5718 5718 5717 5716 5714 5713 5712 5710 5708 5707 5705 5702 5700 5698 5696 5694 5692 5689 5687 5684 5681 5679 5676 5673 5670 5667 5664 5661 5658 5655 5652
5715 5715 5715 5715 5715 5715 5715 5715 5715 5715 5714 5713 5713 5712 5711 5711 5709 5708 5707 5706 5704 5702 5701 5698 5696 5694 5692 5690 5688 5685 5683 5680 5677 5674 5671 5668 5665 5662 5659 5656 5653 5650 5647
5709 5708 5708 5709 5709 5709 5709 5709 5710 5709 5709 5708 5707 5707 5706 5706 5705 5704 5702 5701 5700 5698 5696 5694 5692 5690 5688 5685 5683 5681 5678 5675 5672 5669 5666 5663 5660 5657 5654 5651 5648 5645 5642
5701 5701 5701 5702 5702 5702 5703 5703 5704 5703 5703 5703 5702 5702 5701 5701 5700 5699 5698 5696 5695 5693 5691 5689 5687 5685 5683 5681 5678 5676 5673 5670 5667 5664 5661 5658 5655 5652 5649 5646 5644 5641 5638
5694 5694 5695 5695 5695 5695 5696 5697 5697 5697 5697 5697 5697 5696 5696 5695 5694 5693 5692 5691 5690 5688 5686 5684 5682 5680 5678 5675 5673 5671 5668 5665 5662 5659 5656 5653 5650 5647 5645 5642 5639 5636 5633